GSAT0216 (GALILEO 20) (43056 NORAD) Tracking and Keplerian Element Data

This shows tracking and keplerian element data for the satellite.

Feedback or suggestion? Click here.




ElementValue
Catalog43056
NameGSAT0216 (GALILEO 20)
Epoch Orbit1096
Epoch Day261.06838714
Epoch Year2019
RAAN289.2923
Inclination56.4871
Eccentricity0.0005932
Argument of Perigee253.4351
Mean Anonmoly106.5536
Mean Motion1.70474201
Decay Rate1.4E-07
L11 43056U 17079B 19261.06838714 .00000014 00000-0 00000+0 0 9992
L22 43056 56.4871 289.2923 0005932 253.4351 106.5536 1.70474201 10966

Live tracking and technical data element details for GSAT0216 (GALILEO 20) (NORAD 43056). GSAT0216 (GALILEO 20) can be tracked NOW for your location showing map with azimuth and elevation plus other details from your city location.

Track the satellite on the map from your city or location and see movement details for azimuth, elevation, latitude, longitude, range, height, and movement on the map or in text.







IsCatalogInMostPopularTable: catalog: 43056, numindb: 392
Update: records affected: 1



GetName: 43056 GSAT0216 (GALILEO 20)

Hit Count: updated at: Thu, 19 Sep 2019 17:56:05 GMT